Weather Roundup
Issued by NWS Chicago, IL

Home | Current Version | Previous Version | Text Only | Print | Product List | Glossary Off
Versions: 1 2 3 4 5 6 7 8 9 10 11 12 13 14 15 16 17 18 19 20 21 22 23 24 25 26 27 28 29 30 31 32 33 34 35 36 37 38 39 40 41 42 43 44 45 46 47 48 49 50

000
NZUS59 KLOT 311503
HRRLOT

CHICAGO AREA WEATHER ROUNDUP
NATIONAL WEATHER SERVICE CHICAGO/ROMEOVILLE IL
1000 AM CDT TUE MAY 31 2016

NOTE: "FAIR" INDICATES FEW OR NO CLOUDS BELOW 12,000 FEET WITH NO
SIGNIFICANT WEATHER AND/OR OBSTRUCTIONS TO VISIBILITY.

* THESE STATIONS ARE NOT UNDER NWS QUALITY CONTROL. THEY ALSO MAY NOT
  REPORT WEATHER SUCH AS PRECIPITATION OR FOG.

ILZ005-006-012>014-019>023-311600-
NORTHEAST ILLINOIS

CITY           SKY/WX    TMP DP  RH WIND       PRES   REMARKS
OHARE          PTSUNNY   76  54  46 E12       29.99F
MIDWAY         PTSUNNY   79  57  46 E10       29.99F HX  80
AURORA         SUNNY     79  60  52 SE14G21   29.98F HX  80
LANSING*       CLOUDY    76  58  53 SE8       30.00F
WAUKEGAN       SUNNY     69  54  58 E10       30.01F
DUPAGE AIRPORT SUNNY     78  57  48 SE10      29.98F
WHEELING       SUNNY     75  54  47 SE9       30.01F
$$

WIZ051-052-058>065-066-070>072-311600-
SOUTHEAST WISCONSIN

CITY           SKY/WX    TMP DP  RH WIND       PRES   REMARKS
MILWAUKEE      MOSUNNY   62  55  77 NE6       30.03F
KENOSHA*       SUNNY     72  54  53 E13       30.02F
RACINE*        SUNNY     68  56  65 E10       30.04F
WAUKESHA       SUNNY     68  50  52 E13       30.03S
$$

INZ001>003-010>013-019-020-311600-
NORTHWEST INDIANA

CITY           SKY/WX    TMP DP  RH WIND       PRES   REMARKS
GARY*          PTSUNNY   79  64  61 SE7       30.00F HX  81
MICHIGAN CITY* NOT AVBL
RENSSELAER*    NOT AVBL
VALPARAISO     CLOUDY    77  58  51 SE7       30.01F
$$

LMZ740>746-311600-
SOUTHERN LAKE MICHIGAN

STATION/POSITION TIME  SKY/WX   TEMP WIND        PRES    VSBY
                                AIR  DIR/SP/G
                 (UTC)          (F)  (DEG/KT/KT) (MB)    (MI)
HARRISON CRIB    1400            65  100/  3/  3   N/A
BURNHAM HARBOR   1500            67   30/  3/  5   N/A
CALUMET HARBOR   1400            66   50/  2/  3 1015.6R
BURNS HARBOR     1400            74  150/  4/  9 1016.6S
MICHIGAN CITY    1400            73   90/  7/  9   N/A
$$

ABBREVIATIONS USED IN REMARKS
   TC - TEMPERATURE IN CELSIUS
  WCI - WIND CHILL INDEX
   HX - HEAT INDEX
  VSB - VISIBILITY
$$




USA.gov is the U.S. government's official web portal to all federal, state and local government web resources and services.